Back to catalog

STARLINK-4064

AliveCommunicationsVLEO
NORAD 52665·PAYLOAD·🇺🇸 United States

Launched May 18, 2022 from Cape Canaveral Space Force Station

Loading…

Next Passes (next 24 hours)

TLE

FreshSource: CelesTrak SupGP

Epoch: Sep 14, 2026, 21:18 UTC

1 52665C 22053K   26257.88798611 -.00004508  00000+0 -28270-3 0  2573
2 52665  53.1603  24.1471 0001100  80.8240 161.4343 15.08832837    15

Track STARLINK-4064 in real time with AllMySat

Download on the App Store